Find Local Weather

World > North America > United States > North Carolina

Union Cross, North Carolina Regional Weather

Lat: 36.05N, Lon: 80.12W
Wx Zone: NCZ021
Warning FLW WEATHER ALERT - (More Info. Click Here) Warning
Feedback

Union Cross, NC Regional Weather

Expires:201905212100;;238428
ASUS42 KRAH 212010
RWRRAH
NORTH CAROLINA WEATHER ROUNDUP
NATIONAL WEATHER SERVICE RALEIGH NC
400 PM EDT TUE MAY 21 2019

NOTE: "FAIR" INDICATES FEW OR NO CLOUDS BELOW 12,000 FEET WITH NO
SIGNIFICANT WEATHER AND/OR OBSTRUCTIONS TO VISIBILITY.


NCZ021-022-025-041-071-084-088-212100-
CENTRAL NORTH CAROLINA
  
CITY           SKY/WX    TMP DP  RH WIND       PRES   REMARKS
CHARLOTTE      FAIR      88  57  34 VRB5      29.96F                  
GREENSBORO     FAIR      84  55  36 VRB6      29.97F                  
WINSTON-SALEM  FAIR      86  49  27 W6        29.98F                  
RALEIGH-DURHAM FAIR      84  53  34 NE5       29.96F                  
FORT BRAGG     FAIR      89  56  33 SW5       29.93F                  
FAYETTEVILLE   FAIR      88  60  38 VRB5      29.93F                  
BURLINGTON     FAIR      86  50  28 SW7       29.96F                  
ROXBORO        FAIR      82  50  32 NW6       29.99S                  
HENDERSON      FAIR      80  52  37 CALM      29.97S                  
LOUISBURG      FAIR      84  54  34 N3        29.98F                  
LAURINBURG     FAIR      91  58  32 E6        29.94F                  
$$
 

SKY/WX - Weather  TMP - Temperature  DP - Dew Point  RH - Relative Humidity
WIND - Wind Direction/Speed PRES - Barometric Pressure VSB - Visibility
WCI - Wind Chill Index E13G22 Wind - East Wind 13 mph/Gusts of 22 mph